Regional Weather Roundup
Issued by NWS

Home | Current Version | Previous Version | Text Only | Print | Product List | Glossary Off
Versions: 1 2 3 4 5 6 7 8 9 10 11 12 13 14 15 16 17 18 19 20 21 22 23 24 25 26 27 28 29 30 31 32 33 34 35 36 37 38 39 40 41 42 43 44 45 46 47 48 49 50

177
ASUS45 KABQ 240610
RWRNM
NEW MEXICO REGIONAL WEATHER ROUNDUP
NATIONAL WEATHER SERVICE ALBUQUERQUE NM
1100 PM MST TUE JAN 23 2018

NOTE: "FAIR" MEANS FEW OR NO CLOUDS BELOW 12,000 FEET AGL WITH NO
       SIGNIFICANT WEATHER OR OBSTRUCTIONS TO VISION.

      THIS PRODUCT IS RELEASED AS TWO VERSIONS.  ONE VERSION NEAR
      THE TOP OF THE HOUR CONTAINING PRELIMINARY DATA FROM ALBUQUERQUE
      AND OTHER STATIONS.  A FINAL VERSION WITH ADDITIONAL DATA IS
      ISSUED ABOUT 10 MINUTES AFTER THE HOUR.

NMZ501-503-504-510>518-240700-
NORTHWEST PLATEAU/NORTHCENTRAL MOUNTAINS

CITY           SKY/WX    TMP DP  RH WIND       PRES   REMARKS
FARMINGTON     FAIR      15  10  80 NE8       30.39R WCI   4
6HR MIN TEMP:  15; 6HR MAX TEMP:  36;

LOS ALAMOS     FAIR      31   4  32 N3        30.36S
SANTA FE       FAIR      16  10  77 N8        30.35R WCI   5
6HR MIN TEMP:  16; 6HR MAX TEMP:  38;

TAOS           FAIR      14   8  77 N7        30.38R WCI   4
ANGEL FIRE     FAIR      -3  -7  85 CALM      30.35R

$$
NMZ402-403-502-505>509-240700-
WESTCENTRAL MOUNTAINS/SOUTHWEST MOUNTAINS

CITY           SKY/WX    TMP DP  RH WIND       PRES   REMARKS
GALLUP         FAIR      16   9  74 NE6       30.39R WCI   7
6HR MIN TEMP:  13; 6HR MAX TEMP:  40;

GRANTS         FAIR      13   0  57 NW8       30.41R WCI   1
SILVER CITY    FAIR      24  -5  27 N3        30.30S

$$
NMZ407-409-411-412-240700-
SOUTHERN DESERTS

CITY           SKY/WX    TMP DP  RH WIND       PRES   REMARKS
DEMING         FAIR      31  -2  24 E3        30.31R
6HR MIN TEMP:  30; 6HR MAX TEMP:  54;

LAS CRUCES     FAIR      30  -6  21 NW7       30.32R WCI  23
HOLLOMAN AFB   FAIR      25  -6  24 NE10      30.35R WCI  15
ALAMOGORDO     FAIR      34  -2  21 N8        30.33R WCI  27
T OR C         FAIR      34   0  23 NW9       30.34R WCI  27
6HR MIN TEMP:  33; 6HR MAX TEMP:  52;


$$
NMZ519>523-240700-
CENTRAL VALLEYS/CENTRAL HIGHLANDS

CITY           SKY/WX    TMP DP  RH WIND       PRES   REMARKS
ALBUQUERQUE    FAIR      34  13  41 N8        30.37R WCI  27
6HR MIN TEMP:  29; 6HR MAX TEMP:  47;

MORIARTY ARPT  FAIR      12   1  61 CALM      30.38R
6HR MIN TEMP:  10; 6HR MAX TEMP:  42;

CLINES CORNERS FAIR      27  -1  30 SE5       30.35R WCI  22
6HR MIN TEMP:  23; 6HR MAX TEMP:  38;

BELEN          FAIR      25   6  45 NW9       30.37R WCI  15
6HR MIN TEMP:  23; 6HR MAX TEMP:  45;

SOCORRO        FAIR      30   4  33 NW8       30.36R WCI  22
6HR MIN TEMP:  28; 6HR MAX TEMP:  46;


$$
NMZ524>526-539-540-240700-
SOUTHCENTRAL MOUNTAINS

CITY           SKY/WX    TMP DP  RH WIND       PRES   REMARKS
RUIDOSO        NOT AVBL

$$
NMZ527>531-240700-
NORTHEAST HIGHLANDS/NORTHEAST PLAINS

CITY           SKY/WX    TMP DP  RH WIND       PRES   REMARKS
LAS VEGAS      FAIR      23   1  38 CALM      30.34R
6HR MIN TEMP:  19; 6HR MAX TEMP:  35;

RATON          FAIR      16   0  49 N3        30.32S
6HR MIN TEMP:  16; 6HR MAX TEMP:  37;

CLAYTON        FAIR      25   9  50 W9        30.33S WCI  15
6HR MIN TEMP:  25; 6HR MAX TEMP:  36;


$$
NMZ532>537-240700-
EASTCENTRAL PLAINS

CITY           SKY/WX    TMP DP  RH WIND       PRES   REMARKS
SANTA ROSA     FAIR      27   3  36 CALM      30.37R
TUCUMCARI      FAIR      21   1  41 CALM      30.35R
6HR MIN TEMP:  20; 6HR MAX TEMP:  45;

CANNON AFB     FAIR      24   3  39 NE10      30.36R WCI  14
6HR MIN TEMP:  24; 6HR MAX TEMP:  50;

CLOVIS AIRPORT FAIR      22   5  48 NE9       30.37R WCI  12

$$
NMZ028-029-538-240700-
SOUTHEAST PLAINS

CITY           SKY/WX    TMP DP  RH WIND       PRES   REMARKS
ROSWELL        FAIR      30   0  27 NW3       30.34R
6HR MIN TEMP:  29; 6HR MAX TEMP:  53;

ARTESIA        FAIR      28  -4  24 W9        30.35R WCI  20
CARLSBAD       FAIR      26   1  34 NW5       30.32R WCI  20
6HR MIN TEMP:  26; 6HR MAX TEMP:  54;

HOBBS          FAIR      25  -4  28 NE5       30.34S WCI  19


$$




USA.gov is the U.S. government's official web portal to all federal, state and local government web resources and services.